Home > Weather > Winterthur > Past weeks

Flag for Switzerland Past Weather in Winterthur, Switzerland — Yesterday and Last 2 Weeks

Now
66 °F

Passing clouds.


Feels Like: 66 °F
Forecast: 56 / 70 °F
Wind: 5 mph from Northwest

Location: Zurich-Kloten

Current Time: Jul 1, 2016 at 10:44:55 PM

Latest Report: Jul 1, 2016 at 10:20 PM


Visibility: N/A

Pressure: 30.04 "Hg

Humidity: 88%

Dew Point: 63 °F

Location of WinterthurLocation

Past Weather in Winterthur — Graph

°F

Winterthur Temperature Yesterday

Maximum temperature yesterday: 75 °F (at 5:50 PM)
Minimum temperature yesterday: 61 °F (at 1:50 AM)
Average temperature yesterday: 66 °F

High & Low Weather Summary for the Past Weeks

 TemperatureHumidityPressure
High90 °F (Jun 23, 4:20 PM)100% (Jun 16, 10:20 PM)30.27 "Hg (Jun 16, 10:20 PM)
Low50 °F (Jun 17, 5:20 AM)38% (Jun 24, 3:50 PM)29.68 "Hg (Jun 16, 9:20 PM)
Average66 °F75%30.10 "Hg
* Reported Jun 16 9:20 PM — Jul 1 9:20 PM, Winterthur, Weather by CustomWeather, © 2016

Note: Actual official high and low records may vary slightly from our data, if they occured in-between our weather recording intervals... More about our weather records

Advertising

Winterthur Weather History for the Previous 24 Hours

Scroll right to see more
 ConditionsComfort  
Time TempWeatherWind HumidityBarometerVisibility
9:20 PM
Fri, Jul 1
72 °FSunny.3 mph73%30.01 "Hg10 mi
8:50 PM75 °FSunny.6 mph65%30.01 "Hg10 mi
8:20 PM77 °FPassing clouds.5 mph61%30.01 "HgN/A
7:50 PM79 °FPassing clouds.6 mph54%30.01 "HgN/A
7:20 PM77 °FScattered clouds.5 mph61%30.01 "HgN/A
6:50 PM79 °FScattered clouds.5 mph54%30.01 "HgN/A
6:20 PM79 °FPassing clouds.6 mph54%30.01 "HgN/A
5:50 PM81 °FPassing clouds.5 mph51%30.01 "HgN/A
5:20 PM81 °FPassing clouds.7 mph51%30.04 "HgN/A
4:50 PM79 °FPassing clouds.6 mph54%30.04 "HgN/A
4:20 PM79 °FPassing clouds.8 mph54%30.04 "HgN/A
3:50 PM79 °FPassing clouds.6 mph54%30.04 "HgN/A
3:20 PM77 °FPassing clouds.3 mph54%30.07 "HgN/A
2:50 PM77 °FPassing clouds.5 mph54%30.07 "HgN/A
2:20 PM77 °FPassing clouds.7 mph54%30.07 "HgN/A
1:50 PM77 °FPassing clouds.6 mph57%30.07 "HgN/A
1:20 PM75 °FPassing clouds.3 mph65%30.09 "HgN/A
12:50 PM75 °FPassing clouds.3 mph61%30.09 "HgN/A
12:20 PM73 °FScattered clouds.5 mph65%30.09 "HgN/A
11:50 AM72 °FPassing clouds.1 mph69%30.09 "HgN/A
11:20 AM72 °FPassing clouds.5 mph65%30.09 "HgN/A
10:50 AM72 °FPassing clouds.6 mph69%30.12 "HgN/A
10:20 AM70 °FScattered clouds.2 mph73%30.12 "HgN/A
9:50 AM68 °FScattered clouds.2 mph83%30.12 "HgN/A
9:20 AM66 °FBroken clouds.2 mph88%30.12 "HgN/A
8:50 AM64 °FBroken clouds.5 mph94%30.12 "HgN/A
8:20 AM64 °FBroken clouds.6 mph94%30.09 "HgN/A
7:50 AM64 °FBroken clouds.3 mph88%30.09 "HgN/A
7:20 AM64 °FScattered clouds.No wind88%30.09 "HgN/A
6:50 AM63 °FScattered clouds.No wind94%30.09 "HgN/A
6:20 AM59 °FPassing clouds.1 mph100%30.09 "HgN/A
5:50 AM59 °FFog.No wind94%30.09 "HgN/A
5:20 AM61 °FFog.2 mph94%30.09 "HgN/A
4:50 AM61 °FPassing clouds.5 mph94%30.09 "Hg5 mi
4:20 AM61 °FPassing clouds.3 mph100%30.09 "Hg4 mi
3:50 AM61 °FPassing clouds.5 mph100%30.09 "Hg4 mi
3:20 AM61 °FPassing clouds.1 mph100%30.09 "Hg4 mi
2:50 AM63 °FPassing clouds.3 mph94%30.09 "Hg4 mi
1:50 AM63 °FPassing clouds.5 mph94%30.09 "Hg4 mi
1:20 AM63 °FPassing clouds.3 mph94%30.09 "Hg4 mi
12:50 AM63 °FPassing clouds.3 mph100%30.09 "Hg5 mi
12:20 AM64 °FPassing clouds.3 mph94%30.09 "HgN/A
11:50 PM
Thu, Jun 30
64 °FPassing clouds.3 mph94%30.09 "HgN/A
11:20 PM64 °FPassing clouds.5 mph94%30.09 "HgN/A
10:50 PM64 °FPartly cloudy.6 mph94%30.09 "HgN/A
10:20 PM64 °FScattered showers. Partly sunny.7 mph94%30.09 "HgN/A
Weather by CustomWeather, © 2016

See weather overviewHow to use our weather pages